Leesburg, FL

12:55 AM EDT on August 24, 2017 (GMT -0400)
Leesburg Regional

Weather History for KLEE - March, 2014

Change the Weather History Date:

Saturday, March 8, 2014

  Actual Average Record
Temperature  
Mean Temperature 58 °F -  
Max Temperature 72 °F 73 °F 87 °F (1974)
Min Temperature 45 °F 51 °F 30 °F (1971)
Degree Days  
Heating Degree Days 6    
Growing Degree Days 8 (Base 50)    
Moisture  
Dew Point 47 °F    
Average Humidity 72    
Maximum Humidity 93    
Minimum Humidity 44    
Precipitation  
Precipitation 0.00 in - - ()
Sea Level Pressure  
Sea Level Pressure 30.13 in    
Wind  
Wind Speed 5 mph (North)    
Max Wind Speed 9 mph    
Max Gust Speed -    
Visibility 10 miles    
Events      
Averages and records for this station are not official NWS values.
T = Trace of Precipitation, MM = Missing Value Source: NWS Daily Summary

Daily Weather History Graph

Daily Weather History Graph

Search for Another Location

Airport or City:

Trip Planner

Search our weather history database for the weather conditions in past years. The results will help you decide how hot, cold, wet, or windy it might be!

Date:

Astronomy

Mar. 08, 2014 Rise Set
Actual Time 6:44 AM EST 6:31 PM EST
Civil Twilight 6:21 AM EST 6:55 PM EST
Nautical Twilight 5:53 AM EST 7:22 PM EST
Astronomical Twilight 5:26 AM EST 7:50 PM EST
Moon 11:54 AM EST (3/8) 12:59 AM EST (3/8)
Length of Visible Light 12h 33m
Length of Day
11h 46m
First Quarter, 51% of the Moon is Illuminated
Mar 8
First Quarter
Mar 16
Full
Mar 23
Last Quarter
Mar 30
New
Apr 7
First Quarter

Hourly Weather History & Observations

Time (EST) Temp. Windchill Dew Point Humidity Pressure Visibility Wind Dir Wind Speed Gust Speed Precip Events Conditions
12:18 AM 48.0 °F - 42.1 °F 80% 30.09 in 10.0 mi NW 6.9 mph - N/A   Mostly Cloudy
12:53 AM 48.0 °F - 43.0 °F 83% 30.09 in 10.0 mi NW 5.8 mph - N/A   Overcast
1:53 AM 48.9 °F - 43.0 °F 80% 30.09 in 10.0 mi North 8.1 mph - N/A   Overcast
2:53 AM 48.9 °F - 42.1 °F 77% 30.09 in 10.0 mi NNE 4.6 mph - N/A   Overcast
3:53 AM 48.9 °F - 43.0 °F 80% 30.09 in 10.0 mi North 5.8 mph - N/A   Overcast
4:53 AM 46.9 °F - 43.0 °F 86% 30.09 in 10.0 mi NNE 4.6 mph - N/A   Mostly Cloudy
5:05 AM 46.0 °F 44.8 °F 43.0 °F 89% 30.10 in 10.0 mi North 3.5 mph - N/A   Partly Cloudy
5:53 AM 45.0 °F 43.5 °F 43.0 °F 93% 30.12 in 10.0 mi NNW 3.5 mph - N/A   Scattered Clouds
6:00 AM 45.0 °F 42.6 °F 43.0 °F 93% 30.12 in 10.0 mi North 4.6 mph - N/A   Mostly Cloudy
6:39 AM 45.0 °F 42.6 °F 42.1 °F 90% 30.13 in 10.0 mi North 4.6 mph - N/A   Scattered Clouds
6:53 AM 45.0 °F 41.8 °F 43.0 °F 93% 30.13 in 10.0 mi North 5.8 mph - N/A   Partly Cloudy
7:53 AM 50.0 °F - 45.0 °F 83% 30.15 in 10.0 mi North 9.2 mph - N/A   Clear
8:53 AM 55.0 °F - 46.0 °F 72% 30.17 in 10.0 mi North 6.9 mph - N/A   Clear
9:53 AM 57.9 °F - 46.9 °F 67% 30.18 in 10.0 mi NNE 8.1 mph - N/A   Clear
10:53 AM 61.0 °F - 48.0 °F 62% 30.19 in 10.0 mi Calm Calm - N/A   Clear
11:53 AM 63.0 °F - 50.0 °F 63% 30.18 in 10.0 mi WSW 6.9 mph - N/A   Clear
12:53 PM 66.9 °F - 51.1 °F 57% 30.15 in 10.0 mi Calm Calm - N/A   Clear
1:53 PM 68.0 °F - 50.0 °F 52% 30.12 in 10.0 mi West 6.9 mph - N/A   Clear
2:53 PM 69.1 °F - 48.9 °F 49% 30.11 in 10.0 mi West 3.5 mph - N/A   Clear
3:53 PM 72.0 °F - 48.9 °F 44% 30.09 in 10.0 mi Variable 5.8 mph - N/A   Clear
4:53 PM 71.1 °F - 48.9 °F 45% 30.09 in 10.0 mi WNW 3.5 mph - N/A   Clear
5:53 PM 71.1 °F - 48.9 °F 45% 30.10 in 10.0 mi NNW 5.8 mph - N/A   Clear
6:53 PM 64.9 °F - 48.9 °F 56% 30.11 in 10.0 mi North 5.8 mph - N/A   Clear
7:53 PM 63.0 °F - 50.0 °F 63% 30.15 in 10.0 mi ENE 4.6 mph - N/A   Clear
8:53 PM 61.0 °F - 52.0 °F 72% 30.17 in 10.0 mi East 5.8 mph - N/A   Clear
9:53 PM 59.0 °F - 53.1 °F 81% 30.17 in 10.0 mi Calm Calm - N/A   Clear
10:53 PM 57.0 °F - 52.0 °F 83% 30.18 in 10.0 mi NE 4.6 mph - N/A   Clear
11:53 PM 55.9 °F - 52.0 °F 87% 30.18 in 10.0 mi Calm Calm - N/A   Clear